Location: Newark
(45.5167°N, 11.1667°E)
Time: 07:40:15
(UTC+00:00)

Explorer 11/Cluster Stage 4 - All Passes

Search period start: 14 December 2019 00:00
Search period end: 24 December 2019 00:00
Orbit: 467 x 1259 km, 28.8° (Epoch: 13 December)

Date Brightness Start Highest point End Pass type
(mag) Time Alt. Az. Time Alt. Az. Time Alt. Az.
14 Dec - 08:15:31 10° SSW 08:19:56 17° S 08:23:58 10° SE daylight
14 Dec - 10:03:33 10° SW 10:07:46 17° S 10:11:32 10° SSE daylight
15 Dec - 06:19:01 10° S 06:21:04 11° SSE 06:23:06 10° SE visible
15 Dec - 08:04:05 10° SSW 08:09:00 18° S 08:13:29 10° SE daylight
15 Dec - 09:52:24 10° SW 09:56:52 18° S 10:00:53 10° SSE daylight
16 Dec - 06:06:47 10° S 06:10:04 13° SSE 06:13:16 10° SE visible
16 Dec - 07:52:44 10° SW 07:58:03 20° S 08:02:55 10° SE daylight
16 Dec - 09:41:16 10° SW 09:45:57 18° S 09:50:10 10° SSE daylight
17 Dec - 05:55:00 10° S 05:59:04 15° SSE 06:03:01 10° SE visible
17 Dec - 07:41:28 10° SW 07:47:04 21° S 07:52:15 10° SE daylight
17 Dec - 09:30:10 10° SW 09:35:00 18° SSW 09:39:23 10° SSE daylight
18 Dec - 05:43:26 10° SSW 05:48:02 16° SSE 05:52:33 10° SE visible
18 Dec - 07:30:15 10° SW 07:36:05 22° S 07:41:31 10° SE daylight
18 Dec - 09:19:07 10° SW 09:24:02 18° SSW 09:28:32 10° SSE daylight
19 Dec - 05:32:01 10° SSW 05:37:01 18° SSE 05:41:57 10° SE visible
19 Dec - 07:19:06 10° SW 07:25:05 23° S 07:30:44 10° SE daylight
19 Dec - 09:08:07 10° SW 09:13:03 18° SSW 09:17:37 10° SSE daylight
20 Dec - 05:20:43 10° SSW 05:25:58 19° SSE 05:31:14 10° SE visible
20 Dec - 07:08:00 10° SW 07:14:04 23° S 07:19:53 10° SE daylight
20 Dec - 08:57:10 10° SW 09:02:03 18° SSW 09:06:38 10° SSE daylight
21 Dec - 05:09:30 10° SSW 05:14:56 20° SSE 05:20:26 10° SE visible
21 Dec - 06:56:57 10° SW 07:03:03 23° S 07:08:58 10° SE daylight
21 Dec - 08:46:17 10° SW 08:51:02 17° SSW 08:55:33 10° SSE daylight
22 Dec - 03:14:26 10° SSE 03:16:07 11° SSE 03:17:49 10° SE visible
22 Dec - 04:58:22 10° SSW 05:03:53 21° SSE 05:09:34 10° SE visible
22 Dec - 06:45:57 10° SW 06:52:01 23° S 06:57:59 10° SE daylight
22 Dec - 08:35:28 10° SW 08:40:00 16° SSW 08:44:21 10° SSE daylight
23 Dec - 03:02:37 10° S 03:05:05 12° SSE 03:07:38 10° SE visible
23 Dec - 04:47:19 10° SW 04:52:51 21° S 04:58:38 10° SE visible
23 Dec - 06:35:01 10° SW 06:40:59 23° S 06:46:57 10° SE daylight
23 Dec - 08:24:45 10° SW 08:28:57 15° SSW 08:33:03 10° S daylight
